Find Starlink 36884

NORAD ID: 68026 Int'l Des: 2026-040 Owner: SPXS Country: US Constellation: starlink operational
LEOCIRCULARRETROGRADE

实时位置

正在加载3D地球...

关于 Starlink 36884

正在加载描述...

即将过境

Passes for default location (London). Set your location on the main map for personalized predictions.

高度历史

Loading altitude history...

两行轨道根数

1 68026U 26040M 26106.40996454 .00014243 00000-0 44259-3 0 9991
2 68026 97.2864 55.9653 0001597 98.4319 261.7105 15.33449918 7241
Epoch: Apr 16, 2026 • Age: 19 hours

当前状态

高度 474.7 km
速度 7.63 km/s
星下点 60.03°N, 33.11°W
发射日期 Mar 1, 2026
运行时间 0.1 years
类型 internet

技术详情

分类 Payload
质量 575.00 kg
干质量 530.00 kg
总质量 575.00 kg
长度 0.30 m
直径 4.10 m
跨度 29.00 m
形状 Box + pan
制造商 SPXS
平台类型 Starlink V2MO
阶段状态 In Orbit
所有者/国家 SPXS/US

Most Searched